CP2335 SLET-SLET

Flight info

Callsign CP2335
Flight time 0h 20m
Altitude 4000
Route SLET
Aircraft C210/M-SBDGHM1RWXY/LB2

Departure

Time 2026-04-12 14:59
Airport El Trompillo Airport (SLET)

Arrival

Time 2026-04-12 15:20
Airport El Trompillo Airport (SLET)
Time Latitude Longitude Altitude Speed Heading
2026-04-12 14:55 -17.80225 -63.17610 1379 ft 0 kts 74°
2026-04-12 14:57 -17.80233 -63.17615 1376 ft 6 kts 242°
2026-04-12 14:57 -17.80263 -63.17647 1378 ft 5 kts 213°
2026-04-12 14:57 -17.80280 -63.17657 1378 ft 0 kts 210°
2026-04-12 14:58 -17.80287 -63.17662 1379 ft 5 kts 209°
2026-04-12 14:58 -17.80367 -63.17693 1379 ft 19 kts 192°
2026-04-12 14:58 -17.80591 -63.17565 1377 ft 63 kts 146°
2026-04-12 14:58 -17.81039 -63.17217 1512 ft 84 kts 141°
2026-04-12 14:59 -17.81554 -63.16809 1729 ft 104 kts 141°
2026-04-12 14:59 -17.82098 -63.16370 2125 ft 102 kts 147°
2026-04-12 14:59 -17.82923 -63.16345 2042 ft 136 kts 194°
2026-04-12 14:59 -17.83877 -63.16495 2294 ft 142 kts 188°
2026-04-12 15:00 -17.85614 -63.15719 2664 ft 161 kts 106°
2026-04-12 15:00 -17.85388 -63.14595 2852 ft 165 kts 52°
2026-04-12 15:00 -17.84389 -63.14049 3057 ft 164 kts 10°
2026-04-12 15:01 -17.83295 -63.14297 3259 ft 163 kts 330°
2026-04-12 15:01 -17.82468 -63.15084 3475 ft 161 kts 302°
2026-04-12 15:01 -17.82334 -63.16216 3664 ft 161 kts 258°
2026-04-12 15:01 -17.82585 -63.17363 3897 ft 162 kts 258°
2026-04-12 15:02 -17.82508 -63.18523 3990 ft 166 kts 292°
2026-04-12 15:02 -17.81846 -63.19523 3987 ft 174 kts 326°
2026-04-12 15:02 -17.80653 -63.19708 3989 ft 182 kts 14°
2026-04-12 15:02 -17.79684 -63.18878 3989 ft 187 kts 61°
2026-04-12 15:03 -17.79588 -63.17548 3986 ft 189 kts 108°
2026-04-12 15:03 -17.80401 -63.16519 3988 ft 187 kts 148°
2026-04-12 15:03 -17.81634 -63.16111 3987 ft 184 kts 179°
2026-04-12 15:03 -17.82885 -63.16305 4002 ft 184 kts 194°
2026-04-12 15:04 -17.84084 -63.16771 3981 ft 185 kts 215°
2026-04-12 15:04 -17.84727 -63.17894 3979 ft 180 kts 261°
2026-04-12 15:04 -17.84403 -63.19044 3986 ft 176 kts 306°
2026-04-12 15:04 -17.83563 -63.19996 4007 ft 178 kts 315°
2026-04-12 15:05 -17.82428 -63.20524 3995 ft 182 kts 349°
2026-04-12 15:05 -17.81151 -63.20633 4006 ft 185 kts 356°
2026-04-12 15:05 -17.79857 -63.20718 4009 ft 186 kts 355°
2026-04-12 15:05 -17.78566 -63.20804 4013 ft 184 kts 356°
2026-04-12 15:06 -17.77290 -63.20887 4016 ft 188 kts 356°
2026-04-12 15:06 -17.75981 -63.20920 3998 ft 187 kts
2026-04-12 15:06 -17.74682 -63.20842 4002 ft 187 kts
2026-04-12 15:06 -17.73392 -63.20713 3983 ft 186 kts 14°
2026-04-12 15:07 -17.72289 -63.20188 4020 ft 159 kts 26°
2026-04-12 15:07 -17.71274 -63.19662 3996 ft 172 kts 26°
2026-04-12 15:07 -17.70173 -63.19091 3998 ft 181 kts 26°
2026-04-12 15:07 -17.69017 -63.18492 3992 ft 188 kts 26°
2026-04-12 15:08 -17.67874 -63.17897 3998 ft 188 kts 26°
2026-04-12 15:08 -17.66742 -63.17312 3999 ft 187 kts 26°
2026-04-12 15:08 -17.65587 -63.16714 4001 ft 188 kts 25°
2026-04-12 15:08 -17.64416 -63.16107 4004 ft 188 kts 25°
2026-04-12 15:09 -17.63239 -63.15496 4002 ft 189 kts 26°
2026-04-12 15:09 -17.62028 -63.15010 3978 ft 185 kts
2026-04-12 15:09 -17.60845 -63.15428 3983 ft 184 kts 318°
2026-04-12 15:09 -17.60337 -63.16617 3983 ft 184 kts 272°
2026-04-12 15:10 -17.60821 -63.17829 3976 ft 185 kts 225°
2026-04-12 15:10 -17.61999 -63.18288 3986 ft 189 kts 179°
2026-04-12 15:10 -17.63170 -63.17715 3980 ft 190 kts 134°
2026-04-12 15:10 -17.63607 -63.16441 3942 ft 193 kts 90°
2026-04-12 15:11 -17.63088 -63.15148 3690 ft 199 kts 47°
2026-04-12 15:11 -17.61880 -63.14522 3454 ft 200 kts
2026-04-12 15:11 -17.60576 -63.14900 3198 ft 199 kts 324°
2026-04-12 15:11 -17.59607 -63.15903 2986 ft 193 kts 326°
2026-04-12 15:12 -17.58871 -63.15569 2676 ft 166 kts 152°
2026-04-12 15:12 -17.59897 -63.15416 2468 ft 147 kts 183°
2026-04-12 15:12 -17.60806 -63.15370 2213 ft 109 kts 175°
2026-04-12 15:12 -17.61506 -63.15250 1868 ft 101 kts 165°
2026-04-12 15:13 -17.62198 -63.14988 1585 ft 105 kts 154°
2026-04-12 15:13 -17.62801 -63.14646 1410 ft 99 kts 150°
2026-04-12 15:13 -17.63357 -63.14290 1237 ft 87 kts 147°
2026-04-12 15:13 -17.63958 -63.13879 1241 ft 125 kts 147°
2026-04-12 15:14 -17.64112 -63.13223 1303 ft 106 kts 89°
2026-04-12 15:14 -17.64223 -63.12325 1384 ft 138 kts 100°
2026-04-12 15:14 -17.64399 -63.11271 1595 ft 151 kts 100°
2026-04-12 15:14 -17.64581 -63.10162 1809 ft 152 kts 102°
2026-04-12 15:15 -17.64445 -63.09194 1462 ft 136 kts 95°
2026-04-12 15:15 -17.65170 -63.08936 1751 ft 127 kts 203°
2026-04-12 15:15 -17.66003 -63.09409 1959 ft 145 kts 211°
2026-04-12 15:15 -17.66917 -63.10001 2030 ft 163 kts 212°
2026-04-12 15:16 -17.67914 -63.10643 2028 ft 175 kts 212°
2026-04-12 15:16 -17.68968 -63.11324 2038 ft 181 kts 211°
2026-04-12 15:16 -17.70070 -63.11958 2030 ft 180 kts 206°
2026-04-12 15:16 -17.71205 -63.12528 2031 ft 181 kts 206°
2026-04-12 15:17 -17.72354 -63.13105 1987 ft 184 kts 206°
2026-04-12 15:17 -17.73509 -63.13686 1887 ft 180 kts 206°
2026-04-12 15:17 -17.74624 -63.14248 1785 ft 182 kts 206°
2026-04-12 15:17 -17.75776 -63.14831 1688 ft 185 kts 206°
2026-04-12 15:18 -17.76940 -63.15419 1653 ft 184 kts 206°
2026-04-12 15:18 -17.78074 -63.15993 1630 ft 183 kts 206°
2026-04-12 15:18 -17.79244 -63.16489 1597 ft 181 kts 194°
2026-04-12 15:18 -17.80490 -63.16550 1593 ft 180 kts 172°
2026-04-12 15:19 -17.81531 -63.16032 1590 ft 135 kts 143°
2026-04-12 15:19 -17.82158 -63.15809 1549 ft 85 kts 209°
2026-04-12 15:19 -17.82127 -63.16344 1416 ft 88 kts 310°
2026-04-12 15:19 -17.81697 -63.16737 1365 ft 59 kts 324°
2026-04-12 15:20 -17.81560 -63.16834 1366 ft 41 kts 325°
2026-04-12 15:20 -17.81418 -63.16944 1368 ft 57 kts 324°
2026-04-12 15:21 -17.80985 -63.17277 1373 ft 89 kts 322°
2026-04-12 15:21 -17.80662 -63.17633 1753 ft 43 kts 266°